Weather History for TGPY - October, 2013

Change the Weather History Date:

Thursday, October 24, 2013

  Actual Average Record
Temperature  
Mean Temperature 82 °F -  
Max Temperature 87 °F 84 °F 89 °F (1997)
Min Temperature 78 °F 75 °F 75 °F (1996)
Cooling Degree Days 18    
Growing Degree Days 32 (Base 50)    
Moisture  
Dew Point 77 °F    
Average Humidity 83    
Maximum Humidity 94    
Minimum Humidity 67    
Precipitation  
Precipitation 0.08 in - - ()
Sea Level Pressure  
Sea Level Pressure 29.92 in    
Wind  
Wind Speed 10 mph ()    
Max Wind Speed 21 mph    
Max Gust Speed 29 mph    
Visibility 7.4 miles    
Events Rain    
Averages and records for this station are not official NWS values.
T = Trace of Precipitation, MM = Missing Value Source: Averaged Metar Reports

Daily Weather History Graph

Daily Weather History Graph

Search for Another Location

Airport or City:

Trip Planner

Search our weather history database for the weather conditions in past years. The results will help you decide how hot, cold, wet, or windy it might be!

Date:

Astronomy

Oct. 24, 2013 Rise Set
Actual Time 5:58 AM AST 5:44 PM AST
Civil Twilight 5:36 AM AST 6:05 PM AST
Nautical Twilight 5:11 AM AST 6:30 PM AST
Astronomical Twilight 4:46 AM AST 6:55 PM AST
Moon 10:24 PM AST (10/24) 10:33 AM AST (10/24)
Length of Visible Light 12h 29m
Length of Day
11h 46m
Waning Gibbous, 71% of the Moon is Illuminated
Oct 24
Waning Gibbous
Oct 26
Last Quarter
Nov 3
New
Nov 10
First Quarter
Nov 17
Full

Hourly Weather History & Observations

Time (AST) Temp. Heat Index Dew Point Humidity Pressure Visibility Wind Dir Wind Speed Gust Speed Precip Events Conditions
12:00 AM 80.6 °F 88.1 °F 78.8 °F 94% 29.92 in 6.2 mi East 6.9 mph - N/A   Partly Cloudy
1:00 AM 80.6 °F 87.1 °F 77.0 °F 89% 29.89 in 6.2 mi East 5.8 mph - N/A   Partly Cloudy
2:00 AM 79 °F - 77 °F 90% 29.89 in 14 mi East 5.8 mph - -   Widespread Dust
2:00 AM 78.8 °F - 77.0 °F 94% 29.89 in 6.2 mi East 5.8 mph - N/A   Partly Cloudy
3:00 AM 78.8 °F - 77.0 °F 94% 29.89 in 6.2 mi East 5.8 mph - N/A   Scattered Clouds
4:00 AM 78.8 °F - 77.0 °F 94% 29.89 in 6.2 mi East 5.8 mph - N/A   Scattered Clouds
5:00 AM 79 °F - 77 °F 90% 29.90 in 14 mi East 8.1 mph - -   Widespread Dust
5:00 AM 78.8 °F - 77.0 °F 94% 29.89 in 6.2 mi East 8.1 mph - N/A   Scattered Clouds
6:00 AM 80.6 °F 87.1 °F 77.0 °F 89% 29.92 in 6.2 mi East 9.2 mph - N/A   Scattered Clouds
7:00 AM 82.4 °F 90.9 °F 77.0 °F 84% 29.95 in 6.2 mi East 11.5 mph - N/A   Scattered Clouds
8:00 AM 85 °F - 77 °F 71% 29.97 in 14 mi ESE 11.5 mph - -   Widespread Dust
8:00 AM 86.0 °F 96.9 °F 77.0 °F 74% 29.95 in 6.2 mi ESE 11.5 mph - N/A   Scattered Clouds
9:00 AM 86.0 °F 96.9 °F 77.0 °F 74% 29.98 in 6.2 mi ESE 16.1 mph - N/A   Partly Cloudy
10:00 AM 86.0 °F 96.9 °F 77.0 °F 74% 29.98 in 6.2 mi ESE 16.1 mph - N/A   Mostly Cloudy
11:00 AM 87 °F - 78 °F 68% 29.97 in 15 mi ESE 16.1 mph - -   Widespread Dust
12:00 PM 87.8 °F 102.5 °F 78.8 °F 75% 29.95 in 6.2 mi ESE 17.3 mph - N/A   Scattered Clouds
1:00 PM 87.8 °F 99.7 °F 77.0 °F 70% 29.92 in 6.2 mi East 17.3 mph - N/A   Scattered Clouds
2:00 PM 87 °F - 78 °F 67% 29.89 in 6 mi ESE 15.0 mph - -   Scattered Clouds
2:00 PM 87.8 °F 99.7 °F 77.0 °F 70% 29.89 in 6.2 mi ESE 15.0 mph - N/A   Mostly Cloudy
3:00 PM 86.0 °F 96.9 °F 77.0 °F 74% 29.89 in 6.2 mi SE 17.3 mph - N/A   Scattered Clouds
4:00 PM 84.2 °F 94.1 °F 77.0 °F 79% 29.89 in 6.2 mi ESE 20.7 mph - N/A   Partly Cloudy
5:00 PM 84 °F - 76 °F 70% 29.89 in 12 mi ESE 13.8 mph - -   Widespread Dust
5:00 PM 84.2 °F 92.3 °F 75.2 °F 74% 29.89 in 6.2 mi ESE 13.8 mph 25.3 mph N/A   Scattered Clouds
6:00 PM 82.4 °F 90.9 °F 77.0 °F 84% 29.92 in 5.0 mi ESE 12.7 mph 28.8 mph N/A Rain Light Rain Showers
7:00 PM 78.8 °F - 75.2 °F 89% 29.92 in 6.2 mi ESE 11.5 mph - N/A Rain Light Rain Showers
8:00 PM 79 °F - 76 °F 88% 29.93 in 7 mi East 12.7 mph - -   Widespread Dust
8:00 PM 78.8 °F - 75.2 °F 89% 29.92 in 6.2 mi East 12.7 mph - N/A   Partly Cloudy
9:00 PM 80.6 °F 86.2 °F 75.2 °F 84% 29.95 in 6.2 mi East 17.3 mph - N/A   Partly Cloudy
10:00 PM 80.6 °F 87.1 °F 77.0 °F 89% 29.95 in 6.2 mi East 16.1 mph - N/A Rain Light Rain Showers
11:00 PM 79 °F - 78 °F 94% 29.96 in 6 mi ESE 20.7 mph - - Rain Light Rain Showers
11:00 PM 78.8 °F - 77.0 °F 94% 29.95 in 5.6 mi ESE 20.7 mph - N/A Rain Light Rain Showers